User: anonymous   Login
Location: Newark
(39.4242°N, 80.8531°W)
Time: 02:01:51
(UTC+00:00)
Language:

CAS-4B - Orbit

View from above orbital plane
View from above orbital plane
View from above satellite
View from above satellite

Ground track
Ground track

The orbit data is extracted from the following two-line orbital elements,

1 42759U 17034B   20091.76602691  .00000072  00000-0  17896-4 0  9995
2 42759  43.0182  93.8781 0012359 265.0870 264.7609 15.09774490154225
Epoch (UTC): 31 March 2020 18:23:04
Eccentricity: 0.0012359
inclination: 43.0182°
perigee height: 528 km
apogee height: 545 km
right ascension of ascending node: 93.8781°
argument of perigee: 265.0870°
revolutions per day: 15.09774490
mean anomaly at epoch: 264.7609°
orbit number at epoch: 15422

The dashed part of the orbit path shows where the satellite is in the earth's shadow,  

DLR